Fortuna, CA

5:53 PM PST on November 13, 2019 (GMT -0800)
Rohnerville

Weather History for KFOT - July, 2019

Change the Weather History Date:

Wednesday, July 31, 2019

  Actual Average (WUND) Record (WUND)
Temperature  
Mean Temperature 60 °F -  
Max Temperature 71 °F - - (-1)
Min Temperature 50 °F - - (-1)
Degree Days  
Heating Degree Days 4    
Growing Degree Days 10 (Base 50)    
Moisture  
Dew Point 54 °F    
Average Humidity 81    
Maximum Humidity 100    
Minimum Humidity 53    
Precipitation  
Precipitation 0.04 in - - ()
Sea Level Pressure  
Sea Level Pressure 30.04 in    
Wind  
Wind Speed 6 mph (SW)    
Max Wind Speed 18 mph    
Max Gust Speed 24 mph    
Visibility 10 miles    
Events      
Averages and records for this station are not official NWS values.
T = Trace of Precipitation, MM = Missing Value Source: NWS Daily Summary

Daily Weather History Graph

Daily Weather History Graph

Search for Another Location

Airport or City:

Astronomy

Jul. 31, 2019 Rise Set
Actual Time 6:12 AM PDT 8:32 PM PDT
Civil Twilight 5:41 AM PDT 9:03 PM PDT
Nautical Twilight 5:03 AM PDT 9:41 PM PDT
Astronomical Twilight 4:21 AM PDT 10:22 PM PDT
Moon 5:32 AM PDT (7/31) 8:37 PM PDT (7/31)
Length of Visible Light 15h 21m
Length of Day
14h 20m
Waning Crescent, 0% of the Moon is Illuminated
Jul 31
Waning Crescent
Jul 31
New
Aug 7
First Quarter
Aug 15
Full
Aug 23
Last Quarter

Hourly Weather History & Observations

Time (PDT) Temp. Dew Point Humidity Pressure Visibility Wind Dir Wind Speed Gust Speed Precip Events Conditions
12:10 AM 53.6 °F 51.8 °F 94% 30.05 in 10.0 mi WSW 4.6 mph - N/A   Clear
12:30 AM 53.6 °F 50.0 °F 88% 30.05 in 10.0 mi WSW 5.8 mph - N/A   Clear
12:50 AM 55.4 °F 50.0 °F 82% 30.04 in 10.0 mi SW 6.9 mph - N/A   Clear
1:10 AM 53.6 °F 51.8 °F 94% 30.04 in 10.0 mi WSW 5.8 mph - N/A   Clear
1:30 AM 53.6 °F 50.0 °F 88% 30.04 in 10.0 mi WSW 4.6 mph - N/A   Clear
1:50 AM 53.6 °F 50.0 °F 88% 30.04 in 10.0 mi WSW 4.6 mph - N/A   Clear
2:10 AM 53.6 °F 50.0 °F 88% 30.03 in 10.0 mi WSW 3.5 mph - N/A   Clear
2:30 AM 50.0 °F 50.0 °F 100% 30.03 in 10.0 mi ESE 3.5 mph - N/A   Clear
2:50 AM 50.0 °F 50.0 °F 100% 30.03 in 10.0 mi Calm Calm - N/A   Clear
3:10 AM 50.0 °F 48.2 °F 94% 30.03 in 10.0 mi SSE 4.6 mph - N/A   Clear
3:30 AM 50.0 °F 50.0 °F 100% 30.02 in 10.0 mi SE 3.5 mph - N/A   Clear
3:50 AM 51.8 °F 50.0 °F 94% 30.03 in 10.0 mi Calm Calm - N/A   Scattered Clouds
4:10 AM 50.0 °F 50.0 °F 100% 30.02 in 10.0 mi SE 3.5 mph - N/A   Mostly Cloudy
4:30 AM 51.8 °F 50.0 °F 94% 30.02 in 10.0 mi ESE 3.5 mph - N/A   Overcast
4:50 AM 51.8 °F 50.0 °F 94% 30.02 in 10.0 mi SSE 3.5 mph - N/A   Overcast
5:10 AM 53.6 °F 51.8 °F 94% 30.02 in 10.0 mi SSE 4.6 mph - N/A   Overcast
5:30 AM 53.6 °F 51.8 °F 94% 30.02 in 10.0 mi SSE 4.6 mph - N/A   Overcast
5:50 AM 53.6 °F 51.8 °F 94% 30.02 in 10.0 mi ESE 4.6 mph - N/A   Overcast
6:10 AM 53.6 °F 51.8 °F 94% 30.02 in 10.0 mi SE 5.8 mph - N/A   Overcast
6:30 AM 53.6 °F 50.0 °F 88% 30.02 in 10.0 mi SSE 3.5 mph - N/A   Scattered Clouds
6:50 AM 51.8 °F 50.0 °F 94% 30.02 in 10.0 mi SE 5.8 mph - N/A   Partly Cloudy
7:10 AM 53.6 °F 51.8 °F 94% 30.03 in 10.0 mi SSE 3.5 mph - N/A   Clear
7:30 AM 53.6 °F 51.8 °F 94% 30.03 in 10.0 mi SSE 3.5 mph - N/A   Clear
7:50 AM 55.4 °F 53.6 °F 94% 30.03 in 10.0 mi SE 3.5 mph - N/A   Clear
8:10 AM 55.4 °F 53.6 °F 94% 30.04 in 10.0 mi SE 3.5 mph - N/A   Clear
8:30 AM 57.2 °F 53.6 °F 88% 30.04 in 10.0 mi SE 3.5 mph - N/A   Partly Cloudy
8:50 AM 59.0 °F 53.6 °F 82% 30.04 in 10.0 mi Calm Calm - N/A   Scattered Clouds
9:10 AM 59.0 °F 53.6 °F 82% 30.05 in 10.0 mi WNW 4.6 mph - N/A   Partly Cloudy
9:30 AM 62.6 °F 53.6 °F 72% 30.04 in 10.0 mi WNW 4.6 mph - N/A   Clear
10:10 AM 64.4 °F 55.4 °F 73% 30.04 in 10.0 mi West 5.8 mph - N/A   Partly Cloudy
10:30 AM 64.4 °F 55.4 °F 73% 30.04 in 10.0 mi West 6.9 mph - N/A   Partly Cloudy
10:50 AM 66.2 °F 57.2 °F 73% 30.05 in 10.0 mi WNW 6.9 mph - N/A   Partly Cloudy
11:10 AM 66.2 °F 57.2 °F 73% 30.05 in 10.0 mi West 11.5 mph - N/A   Partly Cloudy
11:30 AM 66.2 °F 55.4 °F 68% 30.05 in 10.0 mi West 11.5 mph - N/A   Partly Cloudy
11:50 AM 68.0 °F 55.4 °F 64% 30.05 in 10.0 mi WNW 13.8 mph 18.4 mph N/A   Partly Cloudy
12:10 PM 68.0 °F 55.4 °F 64% 30.05 in 10.0 mi West 15.0 mph 20.7 mph N/A   Partly Cloudy
12:30 PM 68.0 °F 55.4 °F 64% 30.05 in 10.0 mi West 16.1 mph 21.9 mph N/A   Partly Cloudy
12:50 PM 71.6 °F 53.6 °F 53% 30.05 in 10.0 mi WNW 16.1 mph 24.2 mph N/A   Partly Cloudy
1:10 PM 71.6 °F 55.4 °F 57% 30.05 in 10.0 mi NW 17.3 mph 23.0 mph N/A   Partly Cloudy
1:30 PM 71.6 °F 57.2 °F 60% 30.05 in 10.0 mi WNW 18.4 mph 21.9 mph N/A   Partly Cloudy
1:50 PM 71.6 °F 57.2 °F 60% 30.05 in 1.0 mi West 15.0 mph 19.6 mph 0.04 in   Mostly Cloudy
2:10 PM - - N/A% 30.05 in 10.0 mi North - - N/A   Scattered Clouds
2:30 PM 71.6 °F 57.2 °F 60% 30.05 in 10.0 mi West 16.1 mph - N/A   Unknown
2:50 PM 71.6 °F 57.2 °F 60% 30.05 in 10.0 mi West 16.1 mph - N/A   Partly Cloudy
3:10 PM 71.6 °F 57.2 °F 60% 30.05 in 10.0 mi WNW 18.4 mph 23.0 mph N/A   Clear
3:35 PM - - N/A% - - North - - N/A   Unknown
3:55 PM 71.6 °F 57.2 °F 60% 30.04 in 10.0 mi West 17.3 mph 21.9 mph N/A   Unknown
4:15 PM 71.6 °F 57.2 °F 60% 30.05 in 10.0 mi North - - N/A   Clear
4:35 PM 69.8 °F 57.2 °F 64% 30.04 in 10.0 mi North - - N/A   Clear
4:55 PM 69.8 °F 57.2 °F 64% 30.04 in 10.0 mi North - - N/A   Clear
5:15 PM 71.6 °F 57.2 °F 60% 30.04 in 10.0 mi North - - N/A   Clear
5:35 PM 68.0 °F 57.2 °F 68% 30.05 in 10.0 mi North - - N/A   Clear
5:55 PM 68.0 °F 57.2 °F 68% 30.04 in 10.0 mi North - - N/A   Clear
6:15 PM 68.0 °F 57.2 °F 68% 30.04 in 10.0 mi North - - N/A   Clear
6:35 PM 66.2 °F 57.2 °F 73% 30.04 in 10.0 mi North - - N/A   Clear
6:55 PM 66.2 °F 57.2 °F 73% 30.03 in 10.0 mi North - - N/A   Clear
7:15 PM 66.2 °F 57.2 °F 73% 30.03 in 10.0 mi North - - N/A   Clear
7:35 PM 64.4 °F 55.4 °F 73% 30.03 in 10.0 mi North - - N/A   Clear
7:55 PM 64.4 °F 55.4 °F 73% 30.03 in 10.0 mi North - - N/A   Clear
8:15 PM 62.6 °F 55.4 °F 77% 30.04 in 10.0 mi North - - N/A   Clear
8:35 PM 60.8 °F 57.2 °F 88% 30.04 in 10.0 mi North - - N/A   Clear
8:55 PM 59.0 °F 57.2 °F 94% 30.04 in 10.0 mi North - - N/A   Clear
9:15 PM 59.0 °F 57.2 °F 94% 30.04 in 10.0 mi North - - N/A   Clear
9:35 PM 57.2 °F 57.2 °F 100% 30.05 in 10.0 mi North - - N/A   Clear
9:55 PM 57.2 °F 57.2 °F 100% 30.05 in 10.0 mi North - - N/A   Clear
10:15 PM 57.2 °F 55.4 °F 94% 30.05 in 10.0 mi North - - N/A   Clear
10:35 PM 57.2 °F 55.4 °F 94% 30.05 in 10.0 mi North - - N/A   Clear
10:55 PM 57.2 °F 55.4 °F 94% 30.05 in 10.0 mi North - - N/A   Clear
11:15 PM 57.2 °F 55.4 °F 94% 30.05 in 10.0 mi North - - N/A   Clear
11:35 PM 57.2 °F 55.4 °F 94% 30.05 in 10.0 mi North - - N/A   Clear
11:55 PM 57.2 °F 55.4 °F 94% 30.05 in 10.0 mi North - - N/A   Clear